Simultaneous Nadir Overpasses (SNOs) Predictions

Prediction of SNOs between GOES-16 and METOP-C Satellite Orbit:

Table of predicted SNOs for the next 14.0 days since TLE Epoch: 10/29/2021
Index Date Time (GOES-16) GOES-16 Lat,Lon METOP-C Lat,Lon Distance(km) Time Diff (sec)
1 10/31/2021 02:47:05 -0.03, -75.24 -0.76, -78.57 379.35 80
2 11/01/2021 02:23:46 -0.03, -75.25 0.33, -73.57 191.35 80
3 11/02/2021 14:42:39 0.03, -75.30 0.66, -78.14 322.97 80
4 11/03/2021 14:24:40 0.03, -75.32 -0.48, -73.15 248.00 80
5 11/05/2021 02:43:41 -0.03, -75.32 -0.56, -77.74 275.55 80
6 11/06/2021 02:20:21 -0.03, -75.33 0.53, -72.74 295.50 80
7 11/07/2021 14:39:15 0.03, -75.39 0.47, -77.30 218.66 80
8 11/08/2021 14:21:16 0.04, -75.41 -0.67, -72.32 352.63 80
9 11/10/2021 02:37:35 -0.04, -75.41 -0.40, -76.90 170.10 80
10 11/11/2021 02:19:37 -0.05, -75.43 0.75, -71.91 401.61 80
11 11/12/2021 14:35:50 0.05, -75.50 0.26, -76.47 111.47 80
